Location: *
(58.7167°N, 26.1833°E)
Time: 11:19:00
(UTC+00:00)

Aureole 1 Rocket - Pass Details

Date: 25 August 2019
Orbit: 379 x 1383 km, 73.9° (Epoch: 20 October)

Event Time Altitude Azimuth Distance (km) Brightness Sun altitude
Rises 21:18:24 0° 329° (NNW) 4,398 8.8 -19.6°
Reaches altitude 10° 21:21:27 10° 327° (NNW) 3,358 7.9 -19.7°
Maximum altitude 21:29:29 66° 249° (WSW) 1,262 4.5 -20.0°
Enters shadow 21:32:42 33° 179° (S) 1,711 4.7 -20.1°
